Location: Keewatin
(47.4004°N, 93.0827°W)
Time: 01:13:08
(UTC+00:00)

KKS-1 - Pass Details

Date: 29 February 2020
Orbit: 636 x 650 km, 98.3° (Epoch: 28 March)

Event Time Altitude Azimuth Distance (km) Brightness Sun altitude
Rises 02:07:03 0° 15° (NNE) 2,950 ? -22.9°
Reaches altitude 10° 02:09:16 10° 17° (NNE) 2,036 ? -23.3°
Enters shadow 02:11:26 28° 22° (NNE) 1,195 ? -23.6°
